Weather History for Springfield, VT

Change the Weather History Date:

Monday, May 21, 2012

  Actual Average Record
Temperature  
Mean Temperature 64 °F 56 °F  
Max Temperature 78 °F 69 °F 85 °F (2013)
Min Temperature 49 °F 44 °F 32 °F (2002)
Degree Days  
Heating Degree Days 2    
Cooling Degree Days 0 0  
Month to date cooling degree days 5 0  
Year to date cooling degree days 13 2  
Growing Degree Days 12 (Base 50)    
Moisture  
Dew Point 53 °F    
Average Humidity 65    
Maximum Humidity 89    
Minimum Humidity 40    
Precipitation  
Precipitation T in 0.13 in 0.97 in (2013)
Month to date precipitation 3.56 2.26  
Year to date precipitation 11.54 14.79  
Sea Level Pressure  
Sea Level Pressure 30.19 in    
Wind  
Wind Speed 4 mph (SSE)    
Max Wind Speed 14 mph    
Max Gust Speed 20 mph    
Visibility 10 miles    
Events      
T = Trace of Precipitation, MM = Missing Value Source: NWS Daily Summary

Daily Weather History Graph

Daily Weather History Graph

Search for Another Location

Airport:

Trip Planner

Search our weather history database for the weather conditions in past years. The results will help you decide how hot, cold, wet, or windy it might be!

Date:

Astronomy

May. 21, 2012 Rise Set
Actual Time 5:19 AM EDT 8:14 PM EDT
Civil Twilight 4:46 AM EDT 8:48 PM EDT
Nautical Twilight 4:03 AM EDT 9:30 PM EDT
Astronomical Twilight 3:13 AM EDT 10:21 PM EDT
Moon 5:40 AM EDT (5/21) 9:02 PM EDT (5/21)
Length of Visible Light 16h 01m
Length of Day
14h 54m
New Moon, 0% of the Moon is Illuminated
May 21
New Moon
May 28
First Quarter
Jun 4
Full
Jun 11
Last Quarter
Jun 19
New

Hourly Weather History & Observations

Time (EDT) Temp. Dew Point Humidity Pressure Visibility Wind Dir Wind Speed Gust Speed Precip Events Conditions
12:54 AM 57.0 °F 53.1 °F 87% 30.27 in 10.0 mi Calm Calm - N/A   Clear
1:54 AM 55.9 °F 52.0 °F 87% 30.25 in 10.0 mi Calm Calm - N/A   Clear
2:54 AM 53.1 °F 50.0 °F 89% 30.26 in 10.0 mi Calm Calm - N/A   Clear
3:54 AM 52.0 °F 48.9 °F 89% 30.27 in 10.0 mi Calm Calm - N/A   Clear
4:54 AM 50.0 °F 46.9 °F 89% 30.27 in 10.0 mi Calm Calm - N/A   Clear
5:02 AM 50.0 °F 48.2 °F 94% 30.28 in 10.0 mi Calm Calm - N/A   Scattered Clouds
5:10 AM 51.8 °F 48.2 °F 88% 30.28 in 10.0 mi Calm Calm - N/A   Mostly Cloudy
5:54 AM 50.0 °F 46.9 °F 89% 30.28 in 10.0 mi Calm Calm - N/A   Scattered Clouds
6:54 AM 53.1 °F 50.0 °F 89% 30.28 in 10.0 mi Calm Calm - N/A   Clear
7:54 AM 59.0 °F 50.0 °F 72% 30.28 in 10.0 mi Calm Calm - N/A   Clear
8:54 AM 64.9 °F 46.0 °F 50% 30.27 in 10.0 mi Calm Calm - N/A   Clear
9:54 AM 70.0 °F 45.0 °F 41% 30.26 in 10.0 mi South 3.5 mph - N/A   Clear
10:54 AM 73.0 °F 48.9 °F 42% 30.24 in 10.0 mi Calm Calm - N/A   Clear
11:54 AM 75.9 °F 53.1 °F 45% 30.21 in 10.0 mi SSE 8.1 mph - N/A   Scattered Clouds
12:54 PM 75.9 °F 55.0 °F 48% 30.19 in 10.0 mi SSE 9.2 mph - N/A   Overcast
1:54 PM 75.0 °F 54.0 °F 48% 30.18 in 10.0 mi SSE 11.5 mph 19.6 mph N/A   Mostly Cloudy
2:54 PM 75.9 °F 57.0 °F 52% 30.15 in 10.0 mi SSE 9.2 mph - N/A   Overcast
3:54 PM 75.9 °F 55.9 °F 50% 30.13 in 10.0 mi SSE 10.4 mph - N/A   Overcast
4:54 PM 75.0 °F 55.0 °F 50% 30.12 in 10.0 mi SSE 12.7 mph 18.4 mph N/A   Overcast
5:54 PM 73.0 °F 57.0 °F 57% 30.11 in 10.0 mi South 5.8 mph - N/A   Overcast
6:54 PM 72.0 °F 57.9 °F 61% 30.10 in 10.0 mi Calm Calm - N/A   Mostly Cloudy
7:54 PM 70.0 °F 59.0 °F 68% 30.10 in 10.0 mi SE 4.6 mph - N/A   Overcast
8:41 PM 69.8 °F 59.0 °F 68% 30.09 in 10.0 mi SE 4.6 mph - N/A   Overcast
9:54 PM 68.0 °F 60.1 °F 76% 30.09 in 10.0 mi SE 4.6 mph - N/A   Overcast
10:54 PM 66.0 °F 60.1 °F 81% 30.08 in 10.0 mi Calm Calm - 0.00 in   Overcast
11:42 PM 66.2 °F 59.0 °F 78% 30.07 in 10.0 mi SSE 4.6 mph - N/A   Overcast
11:54 PM 66.0 °F 60.1 °F 81% 30.06 in 10.0 mi SSE 5.8 mph - N/A   Overcast